Terminal Aerodrome Forecast
Issued by NWS Cheyenne, WY

Home | Current Version | Previous Version | Text Only | Print | Product List | Glossary On
Versions: 1 2 3 4 5 6 7 8 9 10 11 12 13 14 15 16 17 18 19 20 21 22 23 24 25 26 27 28 29 30 31 32
000
FTUS45 KCYS 272332
TAFCYS
TAF
KCYS 272332Z 2800/2824 31016G30KT P6SM BKN100
     FM280200 29010KT P6SM SCT200
     FM281500 29016G26KT P6SM SKC
     FM281800 28023G35KT P6SM SKC=

USA.gov is the U.S. government's official web portal to all federal, state and local government web resources and services.